Time,TemperatureF,DewpointF,PressureIn,WindDirection,WindDirectionDegrees,WindSpeedMPH,WindSpeedGustMPH,Humidity,HourlyPrecipIn,Conditions,Clouds,dailyrainin,SoftwareType,DateUTC
2013-02-08 00:00:00,32.2,20.2,30.12,SE,146,10.0,10.0,61,0.00,,,0.00,Wunderground v.1.15,2013-02-08 05:00:00,
2013-02-08 00:10:00,32.2,20.6,30.12,SSE,148,10.0,10.0,62,0.00,,,0.00,Wunderground v.1.15,2013-02-08 05:10:00,
2013-02-08 00:20:00,32.2,20.2,30.12,SSE,153,10.0,10.0,61,0.00,,,0.00,Wunderground v.1.15,2013-02-08 05:20:00,
2013-02-08 00:30:00,32.1,20.2,30.11,SSE,165,9.0,11.0,61,0.00,,,0.00,Wunderground v.1.15,2013-02-08 05:30:00,
2013-02-08 00:40:00,32.0,20.1,30.11,SSE,157,8.0,8.0,61,0.00,,,0.00,Wunderground v.1.15,2013-02-08 05:40:00,
2013-02-08 00:50:00,31.9,20.0,30.10,SE,136,9.0,9.0,61,0.00,,,0.00,Wunderground v.1.15,2013-02-08 05:50:00,
2013-02-08 01:00:00,31.9,19.6,30.11,SE,131,8.0,12.0,60,0.00,,,0.00,Wunderground v.1.15,2013-02-08 06:00:00,
2013-02-08 01:10:00,31.8,19.9,30.10,SE,138,6.0,6.0,61,0.00,,,0.00,Wunderground v.1.15,2013-02-08 06:10:00,
2013-02-08 01:21:00,31.8,20.3,30.09,ESE,109,7.0,7.0,62,0.00,,,0.00,Wunderground v.1.15,2013-02-08 06:21:00,
2013-02-08 01:31:00,31.8,19.9,30.09,ESE,122,6.0,9.0,61,0.00,,,0.00,Wunderground v.1.15,2013-02-08 06:31:00,
2013-02-08 01:41:00,31.9,20.0,30.09,ESE,123,8.0,8.0,61,0.00,,,0.00,Wunderground v.1.15,2013-02-08 06:41:00,
2013-02-08 01:51:00,31.9,20.0,30.08,SE,137,6.0,8.0,61,0.00,,,0.00,Wunderground v.1.15,2013-02-08 06:51:00,
2013-02-08 02:00:00,31.8,20.3,30.08,ESE,121,7.0,7.0,62,0.00,,,0.00,Wunderground v.1.15,2013-02-08 07:00:00,
2013-02-08 02:10:00,31.8,20.3,30.08,SE,134,6.0,6.0,62,0.00,,,0.00,Wunderground v.1.15,2013-02-08 07:10:00,
2013-02-08 02:20:00,31.7,20.5,30.08,SSE,148,5.0,5.0,63,0.00,,,0.00,Wunderground v.1.15,2013-02-08 07:20:00,
2013-02-08 02:30:00,31.7,20.5,30.08,SE,133,5.0,7.0,63,0.00,,,0.00,Wunderground v.1.15,2013-02-08 07:30:00,
2013-02-08 02:40:00,31.7,20.9,30.08,SE,126,5.0,5.0,64,0.00,,,0.00,Wunderground v.1.15,2013-02-08 07:40:00,
2013-02-08 02:50:00,31.7,21.3,30.07,SE,139,4.0,4.0,65,0.00,,,0.00,Wunderground v.1.15,2013-02-08 07:50:00,
2013-02-08 03:00:00,31.7,21.3,30.06,East,98,5.0,6.0,65,0.00,,,0.00,Wunderground v.1.15,2013-02-08 08:00:00,
2013-02-08 03:10:00,31.7,21.6,30.05,SE,137,5.0,5.0,66,0.00,,,0.00,Wunderground v.1.15,2013-02-08 08:10:00,
2013-02-08 03:20:00,31.7,21.6,30.04,ESE,107,6.0,6.0,66,0.00,,,0.00,Wunderground v.1.15,2013-02-08 08:20:00,
2013-02-08 03:30:00,31.7,22.0,30.03,ESE,116,5.0,5.0,67,0.00,,,0.00,Wunderground v.1.15,2013-02-08 08:30:00,
2013-02-08 03:40:00,31.7,22.3,30.03,SE,140,5.0,6.0,68,0.00,,,0.00,Wunderground v.1.15,2013-02-08 08:40:00,
2013-02-08 03:50:00,31.7,22.7,30.03,ESE,112,5.0,5.0,69,0.00,,,0.00,Wunderground v.1.15,2013-02-08 08:50:00,
2013-02-08 04:00:00,31.7,23.0,30.03,SE,127,5.0,6.0,70,0.00,,,0.00,Wunderground v.1.15,2013-02-08 09:00:00,
2013-02-08 04:10:00,31.7,23.4,30.02,ESE,119,5.0,5.0,71,0.00,,,0.00,Wunderground v.1.15,2013-02-08 09:10:00,
2013-02-08 04:21:00,31.8,23.5,30.02,ESE,106,6.0,6.0,71,0.00,,,0.00,Wunderground v.1.15,2013-02-08 09:21:00,
2013-02-08 04:31:00,31.9,23.9,30.01,SE,140,7.0,7.0,72,0.00,,,0.00,Wunderground v.1.15,2013-02-08 09:31:00,
2013-02-08 04:40:00,32.0,24.3,30.01,SSE,147,7.0,10.0,73,0.00,,,0.00,Wunderground v.1.15,2013-02-08 09:40:00,
2013-02-08 04:51:00,32.0,24.3,30.01,SE,138,6.0,8.0,73,0.00,,,0.00,Wunderground v.1.15,2013-02-08 09:51:00,
2013-02-08 05:10:00,32.2,24.8,30.01,SE,129,6.0,6.0,74,0.00,,,0.00,Wunderground v.1.15,2013-02-08 10:10:00,
2013-02-08 05:20:00,32.3,24.9,30.01,SSE,149,5.0,6.0,74,0.00,,,0.00,Wunderground v.1.15,2013-02-08 10:20:00,
2013-02-08 05:30:00,32.3,24.9,30.01,SE,126,5.0,6.0,74,0.00,,,0.00,Wunderground v.1.15,2013-02-08 10:30:00,
2013-02-08 05:40:00,32.4,25.4,30.00,SE,140,5.0,5.0,75,0.00,,,0.00,Wunderground v.1.15,2013-02-08 10:40:00,
2013-02-08 05:50:00,32.5,25.5,30.00,SSE,147,6.0,8.0,75,0.00,,,0.00,Wunderground v.1.15,2013-02-08 10:50:00,
2013-02-08 06:00:00,32.5,25.8,30.00,East,99,6.0,8.0,76,0.00,,,0.00,Wunderground v.1.15,2013-02-08 11:00:00,
2013-02-08 06:10:00,32.6,26.2,29.99,SSE,151,6.0,6.0,77,0.00,,,0.00,Wunderground v.1.15,2013-02-08 11:10:00,
2013-02-08 06:20:00,32.6,26.2,29.99,SE,134,6.0,6.0,77,0.00,,,0.00,Wunderground v.1.15,2013-02-08 11:20:00,
2013-02-08 06:30:00,32.7,26.6,29.99,ESE,105,5.0,8.0,78,0.00,,,0.00,Wunderground v.1.15,2013-02-08 11:30:00,
2013-02-08 06:40:00,32.7,26.9,29.98,SE,142,5.0,5.0,79,0.00,,,0.00,Wunderground v.1.15,2013-02-08 11:40:00,
2013-02-08 06:50:00,32.7,27.2,29.98,SE,136,5.0,5.0,80,0.00,,,0.00,Wunderground v.1.15,2013-02-08 11:50:00,
2013-02-08 07:00:00,32.8,27.3,29.97,ESE,117,6.0,6.0,80,0.00,,,0.00,Wunderground v.1.15,2013-02-08 12:00:00,
2013-02-08 07:10:00,32.9,27.7,29.97,SSE,149,5.0,5.0,81,0.00,,,0.00,Wunderground v.1.15,2013-02-08 12:10:00,
2013-02-08 07:20:00,32.9,28.0,29.96,ESE,121,6.0,6.0,82,0.00,,,0.00,Wunderground v.1.15,2013-02-08 12:20:00,
2013-02-08 07:31:00,32.9,28.6,29.96,SSE,166,6.0,6.0,84,0.00,,,0.00,Wunderground v.1.15,2013-02-08 12:31:00,
2013-02-08 07:40:00,33.0,29.0,29.96,SE,130,7.0,7.0,85,0.00,,,0.00,Wunderground v.1.15,2013-02-08 12:40:00,
2013-02-08 07:51:00,33.2,29.2,29.96,SSE,154,6.0,10.0,85,0.00,,,0.00,Wunderground v.1.15,2013-02-08 12:51:00,
2013-02-08 08:01:00,33.4,29.4,29.96,SE,132,7.0,7.0,85,0.00,,,0.00,Wunderground v.1.15,2013-02-08 13:01:00,
2013-02-08 08:11:00,33.5,29.2,29.96,SE,130,6.0,6.0,84,0.00,,,0.00,Wunderground v.1.15,2013-02-08 13:11:00,
2013-02-08 08:21:00,33.3,29.3,29.95,SE,128,6.0,10.0,85,0.00,,,0.00,Wunderground v.1.15,2013-02-08 13:21:00,
2013-02-08 08:31:00,33.2,29.2,29.94,SE,131,6.0,6.0,85,0.00,,,0.00,Wunderground v.1.15,2013-02-08 13:31:00,
2013-02-08 08:41:00,33.2,29.5,29.94,SE,124,6.0,10.0,86,0.00,,,0.00,Wunderground v.1.15,2013-02-08 13:41:00,
2013-02-08 08:51:00,33.3,29.6,29.93,SE,131,8.0,8.0,86,0.00,,,0.00,Wunderground v.1.15,2013-02-08 13:51:00,
2013-02-08 09:01:00,33.4,29.7,29.92,SE,128,7.0,10.0,86,0.00,,,0.00,Wunderground v.1.15,2013-02-08 14:01:00,
2013-02-08 09:10:00,33.6,29.9,29.92,ESE,111,7.0,10.0,86,0.00,,,0.00,Wunderground v.1.15,2013-02-08 14:10:00,
2013-02-08 09:20:00,33.9,30.2,29.91,SE,127,8.0,8.0,86,0.00,,,0.00,Wunderground v.1.15,2013-02-08 14:20:00,
2013-02-08 09:30:00,34.2,30.4,29.91,SE,130,8.0,10.0,86,0.00,,,0.00,Wunderground v.1.15,2013-02-08 14:30:00,
2013-02-08 09:40:00,34.4,30.6,29.90,SSE,148,8.0,10.0,86,0.00,,,0.00,Wunderground v.1.15,2013-02-08 14:40:00,
2013-02-08 09:50:00,34.6,30.6,29.90,SSE,156,8.0,10.0,85,0.00,,,0.00,Wunderground v.1.15,2013-02-08 14:50:00,
2013-02-08 10:00:00,34.8,31.0,29.89,SE,136,9.0,10.0,86,0.00,,,0.00,Wunderground v.1.15,2013-02-08 15:00:00,
2013-02-08 10:10:00,34.9,31.1,29.89,SSE,152,9.0,11.0,86,0.00,,,0.00,Wunderground v.1.15,2013-02-08 15:10:00,
2013-02-08 10:20:00,35.0,31.2,29.89,SSE,166,9.0,10.0,86,0.00,,,0.00,Wunderground v.1.15,2013-02-08 15:20:00,
2013-02-08 10:30:00,35.0,31.5,29.88,SE,134,9.0,9.0,87,0.00,,,0.00,Wunderground v.1.15,2013-02-08 15:30:00,
2013-02-08 10:40:00,35.0,31.5,29.87,SSE,161,8.0,8.0,87,0.00,,,0.00,Wunderground v.1.15,2013-02-08 15:40:00,
2013-02-08 10:50:00,34.9,31.7,29.87,SE,136,8.0,12.0,88,0.00,,,0.00,Wunderground v.1.15,2013-02-08 15:50:00,
2013-02-08 11:00:00,34.9,32.0,29.86,ESE,119,7.0,10.0,89,0.00,,,0.00,Wunderground v.1.15,2013-02-08 16:00:00,
2013-02-08 11:10:00,35.3,32.4,29.86,SE,136,9.0,10.0,89,0.00,,,0.00,Wunderground v.1.15,2013-02-08 16:10:00,
2013-02-08 11:20:00,35.5,32.6,29.85,SE,140,8.0,10.0,89,0.00,,,0.00,Wunderground v.1.15,2013-02-08 16:20:00,
2013-02-08 11:30:00,35.7,32.8,29.84,SSE,153,8.0,13.0,89,0.00,,,0.00,Wunderground v.1.15,2013-02-08 16:30:00,
2013-02-08 11:40:00,36.0,32.8,29.83,SE,139,11.0,12.0,88,0.00,,,0.00,Wunderground v.1.15,2013-02-08 16:40:00,
2013-02-08 11:50:00,36.2,32.7,29.82,SSE,159,11.0,11.0,87,0.00,,,0.00,Wunderground v.1.15,2013-02-08 16:50:00,
2013-02-08 12:00:00,36.3,32.8,29.82,SSE,147,10.0,10.0,87,0.00,,,0.00,Wunderground v.1.15,2013-02-08 17:00:00,
2013-02-08 12:10:00,36.5,32.7,29.81,SE,140,13.0,13.0,86,0.00,,,0.00,Wunderground v.1.15,2013-02-08 17:10:00,
2013-02-08 12:20:00,36.6,32.8,29.81,ESE,118,11.0,12.0,86,0.00,,,0.00,Wunderground v.1.15,2013-02-08 17:20:00,
2013-02-08 12:30:00,36.7,32.9,29.81,SSE,153,9.0,9.0,86,0.00,,,0.00,Wunderground v.1.15,2013-02-08 17:30:00,
2013-02-08 12:40:00,36.6,32.8,29.80,ESE,117,8.0,10.0,86,0.00,,,0.00,Wunderground v.1.15,2013-02-08 17:40:00,
2013-02-08 12:50:00,36.5,33.0,29.81,SE,142,7.0,7.0,87,0.00,,,0.00,Wunderground v.1.15,2013-02-08 17:50:00,
2013-02-08 13:00:00,36.2,32.7,29.80,SSE,153,8.0,8.0,87,0.00,,,0.00,Wunderground v.1.15,2013-02-08 18:00:00,
2013-02-08 13:10:00,36.0,32.8,29.81,SE,132,7.0,7.0,88,0.00,,,0.00,Wunderground v.1.15,2013-02-08 18:10:00,
2013-02-08 13:20:00,35.8,32.6,29.80,ESE,120,7.0,7.0,88,0.00,,,0.00,Wunderground v.1.15,2013-02-08 18:20:00,
2013-02-08 13:30:00,35.0,32.1,29.80,ENE,76,4.0,4.0,89,0.00,,,0.00,Wunderground v.1.15,2013-02-08 18:30:00,
2013-02-08 13:40:00,33.6,31.5,29.80,East,86,1.0,10.0,92,0.00,,,0.00,Wunderground v.1.15,2013-02-08 18:40:00,
2013-02-08 13:50:00,33.3,31.5,29.80,NE,48,2.0,10.0,93,0.00,,,0.00,Wunderground v.1.15,2013-02-08 18:50:00,
2013-02-08 14:00:00,33.2,31.7,29.80,East,83,2.0,2.0,94,0.00,,,0.00,Wunderground v.1.15,2013-02-08 19:00:00,
2013-02-08 14:10:00,33.1,31.6,29.80,NE,44,3.0,3.0,94,0.00,,,0.00,Wunderground v.1.15,2013-02-08 19:10:00,
2013-02-08 14:20:00,33.0,31.5,29.80,ENE,57,2.0,10.0,94,0.00,,,0.00,Wunderground v.1.15,2013-02-08 19:20:00,
2013-02-08 14:30:00,33.1,31.6,29.80,East,80,3.0,3.0,94,0.00,,,0.00,Wunderground v.1.15,2013-02-08 19:30:00,
2013-02-08 14:40:00,33.0,31.7,29.79,ENE,70,3.0,3.0,95,0.00,,,0.00,Wunderground v.1.15,2013-02-08 19:40:00,
2013-02-08 14:50:00,33.0,31.7,29.79,ENE,59,2.0,10.0,95,0.00,,,0.00,Wunderground v.1.15,2013-02-08 19:50:00,
2013-02-08 15:00:00,33.0,31.7,29.79,ENE,59,3.0,3.0,95,0.00,,,0.00,Wunderground v.1.15,2013-02-08 20:00:00,
2013-02-08 15:10:00,32.9,31.6,29.79,NE,46,3.0,3.0,95,0.00,,,0.00,Wunderground v.1.15,2013-02-08 20:10:00,
2013-02-08 15:20:00,32.9,31.6,29.79,ENE,62,2.0,2.0,95,0.00,,,0.00,Wunderground v.1.15,2013-02-08 20:20:00,
2013-02-08 15:30:00,32.9,31.6,29.79,East,83,3.0,10.0,95,0.00,,,0.00,Wunderground v.1.15,2013-02-08 20:30:00,
2013-02-08 15:40:00,32.9,31.6,29.79,ESE,105,2.0,2.0,95,0.00,,,0.00,Wunderground v.1.15,2013-02-08 20:40:00,
2013-02-08 15:50:00,33.0,31.7,29.79,East,97,1.0,1.0,95,0.00,,,0.00,Wunderground v.1.15,2013-02-08 20:50:00,
2013-02-08 16:00:00,32.9,31.6,29.79,ENE,67,0.0,10.0,95,0.00,,,0.00,Wunderground v.1.15,2013-02-08 21:00:00,
2013-02-08 16:10:00,32.9,31.6,29.79,NE,42,0.0,10.0,95,0.00,,,0.00,Wunderground v.1.15,2013-02-08 21:10:00,
2013-02-08 16:20:00,32.1,30.6,29.79,NE,34,0.0,10.0,94,0.00,,,0.00,Wunderground v.1.15,2013-02-08 21:20:00,
2013-02-08 16:30:00,31.1,29.6,29.79,NE,55,0.0,10.0,94,0.00,,,0.00,Wunderground v.1.15,2013-02-08 21:30:00,
2013-02-08 16:40:00,30.2,28.7,29.79,ESE,115,0.0,10.0,94,0.00,,,0.00,Wunderground v.1.15,2013-02-08 21:40:00,
2013-02-08 16:50:00,29.7,28.2,29.79,NE,41,0.0,10.0,94,0.00,,,0.00,Wunderground v.1.15,2013-02-08 21:50:00,
2013-02-08 17:00:00,29.3,27.5,29.79,ENE,72,0.0,10.0,93,0.00,,,0.00,Wunderground v.1.15,2013-02-08 22:00:00,
2013-02-08 17:10:00,28.9,27.1,29.79,ENE,71,0.0,10.0,93,0.00,,,0.00,Wunderground v.1.15,2013-02-08 22:10:00,
2013-02-08 17:20:00,28.7,27.2,29.80,NE,51,0.0,10.0,94,0.00,,,0.00,Wunderground v.1.15,2013-02-08 22:20:00,
2013-02-08 17:30:00,28.3,26.8,29.80,ENE,74,0.0,10.0,94,0.00,,,0.00,Wunderground v.1.15,2013-02-08 22:30:00,
2013-02-08 17:40:00,28.2,26.7,29.80,East,96,0.0,10.0,94,0.00,,,0.00,Wunderground v.1.15,2013-02-08 22:40:00,
2013-02-08 17:50:00,28.1,26.6,29.80,NE,54,0.0,10.0,94,0.00,,,0.00,Wunderground v.1.15,2013-02-08 22:50:00,
2013-02-08 18:00:00,28.1,26.6,29.80,ENE,69,0.0,10.0,94,0.00,,,0.00,Wunderground v.1.15,2013-02-08 23:00:00,
2013-02-08 18:10:00,28.1,26.6,29.80,NE,45,0.0,10.0,94,0.00,,,0.00,Wunderground v.1.15,2013-02-08 23:10:00,
2013-02-08 18:20:00,28.1,26.6,29.80,NE,39,0.0,10.0,94,0.00,,,0.00,Wunderground v.1.15,2013-02-08 23:20:00,
2013-02-08 18:30:00,28.1,26.6,29.81,NE,47,0.0,10.0,94,0.00,,,0.00,Wunderground v.1.15,2013-02-08 23:30:00,
2013-02-08 18:41:00,28.2,26.7,29.81,NNE,18,0.0,10.0,94,0.00,,,0.00,Wunderground v.1.15,2013-02-08 23:41:00,
2013-02-08 18:50:00,28.2,26.7,29.82,North,9,0.0,10.0,94,0.00,,,0.00,Wunderground v.1.15,2013-02-08 23:50:00,
2013-02-08 19:00:00,28.2,26.7,29.82,North,360,0.0,10.0,94,0.00,,,0.00,Wunderground v.1.15,2013-02-09 00:00:00,
2013-02-08 19:10:00,28.0,26.5,29.83,North,351,0.0,10.0,94,0.00,,,0.00,Wunderground v.1.15,2013-02-09 00:10:00,
2013-02-08 19:20:00,27.1,25.6,29.84,North,355,0.0,10.0,94,0.00,,,0.00,Wunderground v.1.15,2013-02-09 00:20:00,
2013-02-08 19:30:00,26.5,25.0,29.85,NNW,338,0.0,10.0,94,0.00,,,0.00,Wunderground v.1.15,2013-02-09 00:30:00,
2013-02-08 19:40:00,26.4,24.9,29.85,NNW,329,0.0,10.0,94,0.00,,,0.00,Wunderground v.1.15,2013-02-09 00:40:00,
2013-02-08 19:50:00,26.5,25.0,29.85,NNW,344,0.0,10.0,94,0.00,,,0.00,Wunderground v.1.15,2013-02-09 00:50:00,
2013-02-08 20:00:00,26.8,25.6,29.87,NNW,344,0.0,10.0,95,0.00,,,0.00,Wunderground v.1.15,2013-02-09 01:00:00,
2013-02-08 20:10:00,27.0,25.8,29.87,North,350,0.0,10.0,95,0.00,,,0.00,Wunderground v.1.15,2013-02-09 01:10:00,
2013-02-08 20:20:00,26.7,25.5,29.88,North,355,0.0,10.0,95,0.00,,,0.00,Wunderground v.1.15,2013-02-09 01:20:00,
2013-02-08 20:30:00,25.3,23.8,29.89,NW,315,0.0,10.0,94,0.00,,,0.00,Wunderground v.1.15,2013-02-09 01:30:00,
2013-02-08 20:40:00,24.4,22.9,29.91,NNW,340,0.0,10.0,94,0.00,,,0.00,Wunderground v.1.15,2013-02-09 01:40:00,
2013-02-08 20:50:00,23.6,21.9,29.92,NNW,341,0.0,10.0,93,0.00,,,0.00,Wunderground v.1.15,2013-02-09 01:50:00,
2013-02-08 21:00:00,22.9,21.2,29.93,NNW,338,0.0,10.0,93,0.00,,,0.00,Wunderground v.1.15,2013-02-09 02:00:00,
2013-02-08 21:10:00,22.4,20.7,29.94,NNW,338,0.0,10.0,93,0.00,,,0.00,Wunderground v.1.15,2013-02-09 02:10:00,
2013-02-08 21:20:00,21.8,20.1,29.94,NNW,336,0.0,10.0,93,0.00,,,0.00,Wunderground v.1.15,2013-02-09 02:20:00,
2013-02-08 21:30:00,21.5,19.8,29.96,NNW,344,0.0,10.0,93,0.00,,,0.00,Wunderground v.1.15,2013-02-09 02:30:00,
2013-02-08 21:40:00,21.3,19.6,29.96,North,351,0.0,10.0,93,0.00,,,0.00,Wunderground v.1.15,2013-02-09 02:40:00,
2013-02-08 21:50:00,21.2,19.5,29.97,NNW,327,0.0,10.0,93,0.00,,,0.00,Wunderground v.1.15,2013-02-09 02:50:00,
2013-02-08 22:00:00,21.2,19.5,29.98,NNW,333,0.0,10.0,93,0.00,,,0.00,Wunderground v.1.15,2013-02-09 03:00:00,
2013-02-08 22:10:00,21.2,19.5,29.99,NNW,334,0.0,10.0,93,0.00,,,0.00,Wunderground v.1.15,2013-02-09 03:10:00,
2013-02-08 22:20:00,21.2,19.5,30.00,WNW,297,0.0,10.0,93,0.00,,,0.00,Wunderground v.1.15,2013-02-09 03:20:00,
2013-02-08 22:30:00,21.1,19.4,30.01,NNW,331,0.0,10.0,93,0.00,,,0.00,Wunderground v.1.15,2013-02-09 03:30:00,
2013-02-08 22:40:00,20.8,19.1,30.01,NNW,341,0.0,10.0,93,0.00,,,0.00,Wunderground v.1.15,2013-02-09 03:40:00,
2013-02-08 22:50:00,20.7,19.0,30.02,NNW,333,0.0,10.0,93,0.00,,,0.00,Wunderground v.1.15,2013-02-09 03:50:00,
2013-02-08 23:00:00,20.6,18.9,30.02,North,360,0.0,10.0,93,0.00,,,0.00,Wunderground v.1.15,2013-02-09 04:00:00,
2013-02-08 23:10:00,20.5,18.8,30.03,NW,323,0.0,10.0,93,0.00,,,0.00,Wunderground v.1.15,2013-02-09 04:10:00,
2013-02-08 23:20:00,20.4,18.7,30.03,NNW,334,0.0,10.0,93,0.00,,,0.00,Wunderground v.1.15,2013-02-09 04:20:00,
2013-02-08 23:30:00,20.2,18.5,30.04,NNW,336,0.0,10.0,93,0.00,,,0.00,Wunderground v.1.15,2013-02-09 04:30:00,
2013-02-08 23:41:00,20.0,18.3,30.04,NW,317,0.0,10.0,93,0.00,,,0.00,Wunderground v.1.15,2013-02-09 04:41:00,
2013-02-08 23:51:00,19.8,18.1,30.05,WNW,292,0.0,10.0,93,0.00,,,0.00,Wunderground v.1.15,2013-02-09 04:51:00,